Time,TemperatureF,DewpointF,PressureIn,WindDirection,WindDirectionDegrees,WindSpeedMPH,WindSpeedGustMPH,Humidity,HourlyPrecipIn,Conditions,Clouds,dailyrainin,SoftwareType,DateUTC
2013-08-30 00:03:00,72.4,58.2,29.96,SSE,157,0.0,0.0,61,0.00,CLR,,0.00,WeatherDisplay:10.37,2013-08-30 05:03:00,
2013-08-30 00:08:00,72.3,57.6,29.96,SSE,157,0.0,0.0,60,0.00,CLR,,0.00,WeatherDisplay:10.37,2013-08-30 05:08:00,
2013-08-30 00:13:00,72.2,57.5,29.96,SSE,157,0.0,0.0,60,0.00,CLR,,0.00,WeatherDisplay:10.37,2013-08-30 05:13:00,
2013-08-30 00:18:00,72.1,57.4,29.96,SSE,157,0.0,0.0,60,0.00,CLR,,0.00,WeatherDisplay:10.37,2013-08-30 05:18:00,
2013-08-30 00:23:00,72.0,57.4,29.96,SSE,157,0.0,0.0,60,0.00,CLR,,0.00,WeatherDisplay:10.37,2013-08-30 05:23:00,
2013-08-30 00:28:00,71.9,57.3,29.96,SSE,157,0.0,0.0,60,0.00,CLR,,0.00,WeatherDisplay:10.37,2013-08-30 05:28:00,
2013-08-30 00:33:00,71.8,57.2,29.96,SSE,157,0.0,0.0,60,0.00,CLR,,0.00,WeatherDisplay:10.37,2013-08-30 05:33:00,
2013-08-30 00:38:00,71.7,57.1,29.96,SSE,157,0.0,0.0,60,0.00,CLR,,0.00,WeatherDisplay:10.37,2013-08-30 05:38:00,
2013-08-30 00:43:00,71.5,56.9,29.96,SSE,157,0.0,0.0,60,0.00,CLR,,0.00,WeatherDisplay:10.37,2013-08-30 05:43:00,
2013-08-30 00:48:00,71.3,56.7,29.96,SSE,157,0.0,0.0,60,0.00,CLR,,0.00,WeatherDisplay:10.37,2013-08-30 05:48:00,
2013-08-30 00:53:00,71.3,56.7,29.96,SSE,157,0.0,0.0,60,0.00,CLR,,0.00,WeatherDisplay:10.37,2013-08-30 05:53:00,
2013-08-30 00:58:00,71.2,56.6,29.96,SSE,157,0.0,0.0,60,0.00,CLR,,0.00,WeatherDisplay:10.37,2013-08-30 05:58:00,
2013-08-30 01:03:00,71.1,56.5,29.96,SSE,157,0.0,0.0,60,0.00,CLR,,0.00,WeatherDisplay:10.37,2013-08-30 06:03:00,
2013-08-30 01:08:00,71.0,56.4,29.96,SSE,157,0.0,0.0,60,0.00,CLR,,0.00,WeatherDisplay:10.37,2013-08-30 06:08:00,
2013-08-30 01:13:00,70.9,56.3,29.96,SSE,157,0.0,0.0,60,0.00,CLR,,0.00,WeatherDisplay:10.37,2013-08-30 06:13:00,
2013-08-30 01:18:00,70.8,56.2,29.96,SSE,157,0.0,0.0,60,0.00,CLR,,0.00,WeatherDisplay:10.37,2013-08-30 06:18:00,
2013-08-30 01:23:00,70.7,56.1,29.96,SSE,157,0.0,0.0,60,0.00,CLR,,0.00,WeatherDisplay:10.37,2013-08-30 06:23:00,
2013-08-30 01:28:00,70.7,56.1,29.95,SSE,157,0.0,0.0,60,0.00,CLR,,0.00,WeatherDisplay:10.37,2013-08-30 06:28:00,
2013-08-30 01:33:00,70.6,56.0,29.95,SSE,157,0.0,0.0,60,0.00,CLR,,0.00,WeatherDisplay:10.37,2013-08-30 06:33:00,
2013-08-30 01:38:00,70.4,55.8,29.95,SSE,157,0.0,0.0,60,0.00,CLR,,0.00,WeatherDisplay:10.37,2013-08-30 06:38:00,
2013-08-30 01:43:00,70.3,55.8,29.95,SSE,157,0.0,0.0,60,0.00,CLR,,0.00,WeatherDisplay:10.37,2013-08-30 06:43:00,
2013-08-30 01:48:00,70.3,55.8,29.95,SSE,157,0.0,0.0,60,0.00,CLR,,0.00,WeatherDisplay:10.37,2013-08-30 06:48:00,
2013-08-30 01:53:00,70.2,55.7,29.95,SSE,157,0.0,0.0,60,0.00,CLR,,0.00,WeatherDisplay:10.37,2013-08-30 06:53:00,
2013-08-30 01:58:00,70.2,55.7,29.95,SSE,157,0.0,0.0,60,0.00,CLR,,0.00,WeatherDisplay:10.37,2013-08-30 06:58:00,
2013-08-30 02:03:00,70.2,55.7,29.95,SSE,157,0.0,0.0,60,0.00,CLR,,0.00,WeatherDisplay:10.37,2013-08-30 07:03:00,
2013-08-30 02:08:00,70.1,55.6,29.95,SSE,157,0.0,0.0,60,0.00,CLR,,0.00,WeatherDisplay:10.37,2013-08-30 07:08:00,
2013-08-30 02:13:00,70.2,55.7,29.95,SSE,157,0.0,0.0,60,0.00,CLR,,0.00,WeatherDisplay:10.37,2013-08-30 07:13:00,
2013-08-30 02:18:00,70.1,55.6,29.95,SSE,157,0.0,0.0,60,0.00,CLR,,0.00,WeatherDisplay:10.37,2013-08-30 07:18:00,
2013-08-30 02:23:00,70.1,55.6,29.95,SSE,157,0.0,0.0,60,0.00,CLR,,0.00,WeatherDisplay:10.37,2013-08-30 07:23:00,
2013-08-30 02:28:00,69.9,55.4,29.95,SSE,157,0.0,0.0,60,0.00,CLR,,0.00,WeatherDisplay:10.37,2013-08-30 07:28:00,
2013-08-30 02:33:00,69.9,55.4,29.95,SSE,157,0.0,0.0,60,0.00,CLR,,0.00,WeatherDisplay:10.37,2013-08-30 07:33:00,
2013-08-30 02:38:00,69.8,55.3,29.95,SSE,157,0.0,0.0,60,0.00,CLR,,0.00,WeatherDisplay:10.37,2013-08-30 07:38:00,
2013-08-30 02:43:00,69.7,55.2,29.95,SSE,157,0.0,0.0,60,0.00,CLR,,0.00,WeatherDisplay:10.37,2013-08-30 07:43:00,
2013-08-30 02:48:00,69.6,55.1,29.95,SSE,157,0.0,0.0,60,0.00,CLR,,0.00,WeatherDisplay:10.37,2013-08-30 07:48:00,
2013-08-30 02:53:00,69.5,55.0,29.95,SSE,157,0.0,0.0,60,0.00,CLR,,0.00,WeatherDisplay:10.37,2013-08-30 07:53:00,
2013-08-30 02:58:00,69.4,54.9,29.95,SSE,157,0.0,0.0,60,0.00,CLR,,0.00,WeatherDisplay:10.37,2013-08-30 07:58:00,
2013-08-30 03:03:00,69.3,54.8,29.95,SSE,157,0.0,0.0,60,0.00,CLR,,0.00,WeatherDisplay:10.37,2013-08-30 08:03:00,
2013-08-30 03:08:00,69.2,54.7,29.95,SSE,157,0.0,0.0,60,0.00,CLR,,0.00,WeatherDisplay:10.37,2013-08-30 08:08:00,
2013-08-30 03:13:00,69.2,54.7,29.95,SSE,157,0.0,0.0,60,0.00,CLR,,0.00,WeatherDisplay:10.37,2013-08-30 08:13:00,
2013-08-30 03:18:00,69.1,54.6,29.95,SSE,157,0.0,0.0,60,0.00,CLR,,0.00,WeatherDisplay:10.37,2013-08-30 08:18:00,
2013-08-30 03:23:00,69.0,54.5,29.95,SSE,157,0.0,0.0,60,0.00,CLR,,0.00,WeatherDisplay:10.37,2013-08-30 08:23:00,
2013-08-30 03:28:00,68.8,54.3,29.95,SSE,157,0.0,0.0,60,0.00,CLR,,0.00,WeatherDisplay:10.37,2013-08-30 08:28:00,
2013-08-30 03:33:00,68.7,54.3,29.95,SSE,157,0.0,0.0,60,0.00,CLR,,0.00,WeatherDisplay:10.37,2013-08-30 08:33:00,
2013-08-30 03:38:00,68.5,54.1,29.94,SSE,157,0.0,0.0,60,0.00,CLR,,0.00,WeatherDisplay:10.37,2013-08-30 08:38:00,
2013-08-30 03:43:00,68.5,54.1,29.94,SSE,157,0.0,0.0,60,0.00,CLR,,0.00,WeatherDisplay:10.37,2013-08-30 08:43:00,
2013-08-30 03:48:00,68.4,54.0,29.94,SSE,157,0.0,0.0,60,0.00,CLR,,0.00,WeatherDisplay:10.37,2013-08-30 08:48:00,
2013-08-30 03:53:00,68.4,54.0,29.94,SSE,157,0.0,0.0,60,0.00,CLR,,0.00,WeatherDisplay:10.37,2013-08-30 08:53:00,
2013-08-30 03:58:00,68.3,53.9,29.95,SSE,157,0.0,0.0,60,0.00,CLR,,0.00,WeatherDisplay:10.37,2013-08-30 08:58:00,
2013-08-30 04:03:00,68.2,53.8,29.94,SSE,157,0.0,0.0,60,0.00,CLR,,0.00,WeatherDisplay:10.37,2013-08-30 09:03:00,
2013-08-30 04:08:00,68.2,53.8,29.94,SSE,157,0.0,0.0,60,0.00,CLR,,0.00,WeatherDisplay:10.37,2013-08-30 09:08:00,
2013-08-30 04:13:00,68.1,53.7,29.94,SSE,157,0.0,0.0,60,0.00,CLR,,0.00,WeatherDisplay:10.37,2013-08-30 09:13:00,
2013-08-30 04:18:00,68.0,53.6,29.94,SSE,157,0.0,0.0,60,0.00,CLR,,0.00,WeatherDisplay:10.37,2013-08-30 09:18:00,
2013-08-30 04:23:00,68.0,53.6,29.94,SSE,157,0.0,0.0,60,0.00,CLR,,0.00,WeatherDisplay:10.37,2013-08-30 09:23:00,
2013-08-30 04:28:00,67.9,53.5,29.94,SSE,157,0.0,0.0,60,0.00,CLR,,0.00,WeatherDisplay:10.37,2013-08-30 09:28:00,
2013-08-30 04:33:00,67.8,53.4,29.94,SSE,157,0.0,0.0,60,0.00,CLR,,0.00,WeatherDisplay:10.37,2013-08-30 09:33:00,
2013-08-30 04:38:00,67.7,53.3,29.94,SSE,157,0.0,0.0,60,0.00,CLR,,0.00,WeatherDisplay:10.37,2013-08-30 09:38:00,
2013-08-30 04:43:00,67.7,53.3,29.94,SSE,157,0.0,0.0,60,0.00,CLR,,0.00,WeatherDisplay:10.37,2013-08-30 09:43:00,
2013-08-30 04:48:00,67.6,53.2,29.94,SSE,157,0.0,0.0,60,0.00,CLR,,0.00,WeatherDisplay:10.37,2013-08-30 09:48:00,
2013-08-30 04:53:00,67.6,53.2,29.94,SSE,157,0.0,0.0,60,0.00,CLR,,0.00,WeatherDisplay:10.37,2013-08-30 09:53:00,
2013-08-30 04:58:00,67.5,53.1,29.94,SSE,157,0.0,0.0,60,0.00,CLR,,0.00,WeatherDisplay:10.37,2013-08-30 09:58:00,
2013-08-30 05:03:00,67.5,53.1,29.94,SSE,157,0.0,0.0,60,0.00,CLR,,0.00,WeatherDisplay:10.37,2013-08-30 10:03:00,
2013-08-30 05:08:00,67.4,53.0,29.94,SSE,157,0.0,0.0,60,0.00,CLR,,0.00,WeatherDisplay:10.37,2013-08-30 10:08:00,
2013-08-30 05:13:00,67.4,53.0,29.94,SSE,157,0.0,0.0,60,0.00,CLR,,0.00,WeatherDisplay:10.37,2013-08-30 10:13:00,
2013-08-30 05:18:00,67.2,53.3,29.94,SSE,157,0.0,0.0,61,0.00,CLR,,0.00,WeatherDisplay:10.37,2013-08-30 10:18:00,
2013-08-30 05:23:00,67.2,53.3,29.94,SSE,157,0.0,0.0,61,0.00,CLR,,0.00,WeatherDisplay:10.37,2013-08-30 10:23:00,
2013-08-30 05:28:00,67.2,53.3,29.94,SSE,157,0.0,0.0,61,0.00,CLR,,0.00,WeatherDisplay:10.37,2013-08-30 10:28:00,
2013-08-30 05:33:00,67.1,53.2,29.94,SSE,157,0.0,0.0,61,0.00,CLR,,0.00,WeatherDisplay:10.37,2013-08-30 10:33:00,
2013-08-30 05:38:00,66.9,53.0,29.94,SSE,157,0.0,0.0,61,0.00,CLR,,0.00,WeatherDisplay:10.37,2013-08-30 10:38:00,
2013-08-30 05:43:00,67.0,53.1,29.94,SSE,157,0.0,0.0,61,0.00,CLR,,0.00,WeatherDisplay:10.37,2013-08-30 10:43:00,
2013-08-30 05:48:00,67.0,53.1,29.94,SSE,157,0.0,0.0,61,0.00,CLR,,0.00,WeatherDisplay:10.37,2013-08-30 10:48:00,
2013-08-30 05:53:00,66.9,53.0,29.94,SSE,157,0.0,0.0,61,0.00,CLR,,0.00,WeatherDisplay:10.37,2013-08-30 10:53:00,
2013-08-30 05:58:00,66.7,52.4,29.94,SSE,157,0.0,0.0,60,0.00,CLR,,0.00,WeatherDisplay:10.37,2013-08-30 10:58:00,
2013-08-30 06:03:00,66.7,52.8,29.94,SSE,157,0.0,0.0,61,0.00,CLR,,0.00,WeatherDisplay:10.37,2013-08-30 11:03:00,
2013-08-30 06:08:00,66.7,52.4,29.94,SSE,157,0.0,0.0,60,0.00,CLR,,0.00,WeatherDisplay:10.37,2013-08-30 11:08:00,
2013-08-30 06:13:00,66.7,52.4,29.94,SSE,157,0.0,0.0,60,0.00,CLR,,0.00,WeatherDisplay:10.37,2013-08-30 11:13:00,
2013-08-30 06:18:00,66.7,52.4,29.94,SSE,157,0.0,0.0,60,0.00,CLR,,0.00,WeatherDisplay:10.37,2013-08-30 11:18:00,
2013-08-30 06:23:00,66.7,52.4,29.94,SSE,157,0.0,0.0,60,0.00,CLR,,0.00,WeatherDisplay:10.37,2013-08-30 11:23:00,
2013-08-30 06:28:00,66.7,52.4,29.94,SSE,157,0.0,0.0,60,0.00,CLR,,0.00,WeatherDisplay:10.37,2013-08-30 11:28:00,
2013-08-30 06:33:00,66.7,52.4,29.94,SSE,157,0.0,0.0,60,0.00,CLR,,0.00,WeatherDisplay:10.37,2013-08-30 11:33:00,
2013-08-30 06:38:00,66.7,52.4,29.94,SSE,157,0.0,0.0,60,0.00,CLR,,0.00,WeatherDisplay:10.37,2013-08-30 11:38:00,
2013-08-30 06:43:00,66.8,52.5,29.94,SSE,157,0.0,0.0,60,0.00,CLR,,0.00,WeatherDisplay:10.37,2013-08-30 11:43:00,
2013-08-30 06:48:00,67.0,53.1,29.94,SSE,157,0.0,0.0,61,0.00,CLR,,0.00,WeatherDisplay:10.37,2013-08-30 11:48:00,
2013-08-30 06:53:00,67.1,53.2,29.94,SSE,157,0.0,0.0,61,0.00,CLR,,0.00,WeatherDisplay:10.37,2013-08-30 11:53:00,
2013-08-30 06:58:00,67.4,53.0,29.94,SSE,157,0.0,0.0,60,0.00,CLR,,0.00,WeatherDisplay:10.37,2013-08-30 11:58:00,
2013-08-30 07:03:00,67.8,53.4,29.94,SSE,157,0.0,0.0,60,0.00,CLR,,0.00,WeatherDisplay:10.37,2013-08-30 12:03:00,
2013-08-30 07:08:00,68.2,53.8,29.94,SSE,157,0.0,0.0,60,0.00,CLR,,0.00,WeatherDisplay:10.37,2013-08-30 12:08:00,
2013-08-30 07:13:00,68.6,54.2,29.93,SSE,157,0.0,0.0,60,0.00,CLR,,0.00,WeatherDisplay:10.37,2013-08-30 12:13:00,
2013-08-30 07:18:00,69.1,54.6,29.93,SSE,157,0.0,0.0,60,0.00,CLR,,0.00,WeatherDisplay:10.37,2013-08-30 12:18:00,
2013-08-30 07:23:00,69.6,55.1,29.94,SSE,161,0.0,0.0,60,0.00,CLR,,0.00,WeatherDisplay:10.37,2013-08-30 12:23:00,
2013-08-30 07:28:00,70.0,55.5,29.94,SSE,164,0.0,0.0,60,0.00,CLR,,0.00,WeatherDisplay:10.37,2013-08-30 12:28:00,
2013-08-30 07:33:00,70.5,55.9,29.94,South,171,0.0,0.0,60,0.00,CLR,,0.00,WeatherDisplay:10.37,2013-08-30 12:33:00,
2013-08-30 07:38:00,70.9,55.9,29.94,South,173,0.0,0.0,59,0.00,CLR,,0.00,WeatherDisplay:10.37,2013-08-30 12:38:00,
2013-08-30 07:43:00,71.3,56.2,29.94,SSE,163,0.0,0.0,59,0.00,CLR,,0.00,WeatherDisplay:10.37,2013-08-30 12:43:00,
2013-08-30 07:48:00,71.7,56.6,29.94,SSE,163,0.0,0.0,59,0.00,CLR,,0.00,WeatherDisplay:10.37,2013-08-30 12:48:00,
2013-08-30 07:53:00,72.2,57.1,29.94,SSE,163,0.0,0.0,59,0.00,CLR,,0.00,WeatherDisplay:10.37,2013-08-30 12:53:00,
2013-08-30 07:58:00,72.8,57.6,29.94,South,182,0.0,0.0,59,0.00,CLR,,0.00,WeatherDisplay:10.37,2013-08-30 12:58:00,
2013-08-30 08:03:00,73.3,58.1,29.94,South,182,0.0,0.0,59,0.00,CLR,,0.00,WeatherDisplay:10.37,2013-08-30 13:03:00,
2013-08-30 08:08:00,73.8,58.6,29.94,South,182,0.0,0.0,59,0.00,CLR,,0.00,WeatherDisplay:10.37,2013-08-30 13:08:00,
2013-08-30 08:13:00,74.2,59.4,29.94,SW,218,2.3,2.3,60,0.00,CLR,,0.00,WeatherDisplay:10.37,2013-08-30 13:13:00,
2013-08-30 08:18:00,74.6,60.3,29.94,SW,215,2.3,2.3,61,0.00,CLR,,0.00,WeatherDisplay:10.37,2013-08-30 13:18:00,
2013-08-30 08:23:00,74.9,61.0,29.94,SW,232,2.3,2.3,62,0.00,CLR,,0.00,WeatherDisplay:10.37,2013-08-30 13:23:00,
2013-08-30 08:28:00,75.2,61.7,29.93,SW,233,3.5,3.5,63,0.00,CLR,,0.00,WeatherDisplay:10.37,2013-08-30 13:28:00,
2013-08-30 08:33:00,75.5,62.5,29.93,SW,218,3.5,3.5,64,0.00,CLR,,0.00,WeatherDisplay:10.37,2013-08-30 13:33:00,
2013-08-30 08:38:00,75.7,62.7,29.93,SSW,207,3.5,3.5,64,0.00,CLR,,0.00,WeatherDisplay:10.37,2013-08-30 13:38:00,
2013-08-30 08:43:00,75.9,63.3,29.93,SW,230,3.5,3.5,65,0.00,CLR,,0.00,WeatherDisplay:10.37,2013-08-30 13:43:00,
2013-08-30 08:48:00,76.3,63.7,29.93,SSW,206,0.0,0.3,65,0.00,CLR,,0.00,WeatherDisplay:10.37,2013-08-30 13:48:00,
2013-08-30 08:53:00,76.8,64.1,29.93,SSW,203,4.6,4.6,65,0.00,CLR,,0.00,WeatherDisplay:10.37,2013-08-30 13:53:00,
2013-08-30 08:58:00,77.0,64.8,29.93,SW,229,4.6,4.6,66,0.00,CLR,,0.00,WeatherDisplay:10.37,2013-08-30 13:58:00,
2013-08-30 09:03:00,77.1,64.9,29.93,SW,231,5.8,5.8,66,0.00,CLR,,0.00,WeatherDisplay:10.37,2013-08-30 14:03:00,
2013-08-30 09:08:00,77.5,65.2,29.93,SW,232,0.0,0.0,66,0.00,CLR,,0.00,WeatherDisplay:10.37,2013-08-30 14:08:00,
2013-08-30 09:13:00,78.2,65.9,29.93,SSW,213,2.3,0.0,66,0.00,CLR,,0.00,WeatherDisplay:10.37,2013-08-30 14:13:00,
2013-08-30 09:18:00,78.7,66.8,29.93,SW,229,1.0,1.0,67,0.00,CLR,,0.00,WeatherDisplay:10.37,2013-08-30 14:18:00,
2013-08-30 09:23:00,78.9,67.0,29.93,SSW,206,9.2,9.2,67,0.00,CLR,,0.00,WeatherDisplay:10.37,2013-08-30 14:23:00,
2013-08-30 09:28:00,79.0,67.1,29.93,SW,231,4.6,0.0,67,0.00,CLR,,0.00,WeatherDisplay:10.37,2013-08-30 14:28:00,
2013-08-30 09:33:00,79.3,67.4,29.93,SW,223,0.0,0.0,67,0.00,CLR,,0.00,WeatherDisplay:10.37,2013-08-30 14:33:00,
2013-08-30 09:38:00,79.8,68.3,29.93,WSW,239,0.0,0.0,68,0.00,CLR,,0.00,WeatherDisplay:10.37,2013-08-30 14:38:00,
2013-08-30 09:43:00,80.1,68.6,29.93,SW,223,6.9,6.9,68,0.00,CLR,,0.00,WeatherDisplay:10.37,2013-08-30 14:43:00,
2013-08-30 09:49:00,80.3,68.3,29.92,WSW,241,2.3,0.0,67,0.00,CLR,,0.00,WeatherDisplay:10.37,2013-08-30 14:49:00,
2013-08-30 09:54:00,80.7,69.2,29.92,SSW,192,0.0,0.3,68,0.00,CLR,,0.00,WeatherDisplay:10.37,2013-08-30 14:54:00,
2013-08-30 09:59:00,81.2,69.6,29.92,SW,219,3.5,3.5,68,0.00,CLR,,0.00,WeatherDisplay:10.37,2013-08-30 14:59:00,
2013-08-30 10:04:00,81.4,69.8,29.92,SW,234,0.0,0.0,68,0.00,CLR,,0.00,WeatherDisplay:10.37,2013-08-30 15:04:00,
2013-08-30 10:09:00,81.8,70.2,29.92,SW,215,6.9,6.9,68,0.00,CLR,,0.00,WeatherDisplay:10.37,2013-08-30 15:09:00,
2013-08-30 10:14:00,81.9,70.3,29.92,SW,221,2.3,0.0,68,0.00,CLR,,0.00,WeatherDisplay:10.37,2013-08-30 15:14:00,
2013-08-30 10:19:00,82.4,70.8,29.92,SSW,211,3.5,3.5,68,0.00,CLR,,0.00,WeatherDisplay:10.37,2013-08-30 15:19:00,
2013-08-30 10:24:00,82.7,71.1,29.92,West,273,1.2,0.0,68,0.00,CLR,,0.00,WeatherDisplay:10.37,2013-08-30 15:24:00,
2013-08-30 10:29:00,83.2,71.5,29.92,SW,224,3.5,0.0,68,0.00,CLR,,0.00,WeatherDisplay:10.37,2013-08-30 15:29:00,
2013-08-30 10:34:00,83.6,71.9,29.92,West,274,0.0,0.3,68,0.00,CLR,,0.00,WeatherDisplay:10.37,2013-08-30 15:34:00,
2013-08-30 10:39:00,83.6,71.9,29.92,West,273,4.6,0.0,68,0.00,CLR,,0.00,WeatherDisplay:10.37,2013-08-30 15:39:00,
2013-08-30 10:44:00,84.0,72.3,29.92,West,275,2.3,2.3,68,0.00,CLR,,0.00,WeatherDisplay:10.37,2013-08-30 15:44:00,
2013-08-30 10:49:00,84.3,72.6,29.92,West,273,3.5,3.5,68,0.00,CLR,,0.00,WeatherDisplay:10.37,2013-08-30 15:49:00,
2013-08-30 10:54:00,84.5,72.8,29.92,West,280,1.2,1.2,68,0.00,CLR,,0.00,WeatherDisplay:10.37,2013-08-30 15:54:00,
2013-08-30 10:59:00,85.0,73.3,29.92,SSW,212,3.5,3.5,68,0.00,CLR,,0.00,WeatherDisplay:10.37,2013-08-30 15:59:00,
2013-08-30 11:04:00,85.5,73.7,29.92,WSW,254,0.0,0.0,68,0.00,CLR,,0.00,WeatherDisplay:10.37,2013-08-30 16:04:00,
2013-08-30 11:09:00,86.1,74.3,29.92,WSW,237,4.6,4.6,68,0.00,CLR,,0.00,WeatherDisplay:10.37,2013-08-30 16:09:00,
2013-08-30 11:14:00,86.1,74.3,29.91,SW,219,0.0,0.0,68,0.00,CLR,,0.00,WeatherDisplay:10.37,2013-08-30 16:14:00,
2013-08-30 11:19:00,86.1,74.3,29.91,South,188,4.0,4.0,68,0.00,CLR,,0.00,WeatherDisplay:10.37,2013-08-30 16:19:00,
2013-08-30 11:24:00,85.7,73.9,29.91,South,185,4.6,4.6,68,0.00,CLR,,0.00,WeatherDisplay:10.37,2013-08-30 16:24:00,
2013-08-30 11:29:00,85.5,73.7,29.91,SSW,210,6.9,6.9,68,0.00,CLR,,0.00,WeatherDisplay:10.37,2013-08-30 16:29:00,
2013-08-30 11:34:00,86.1,74.3,29.91,SSW,194,6.0,6.0,68,0.00,CLR,,0.00,WeatherDisplay:10.37,2013-08-30 16:34:00,
2013-08-30 11:39:00,86.1,74.3,29.91,South,175,3.5,3.5,68,0.00,CLR,,0.00,WeatherDisplay:10.37,2013-08-30 16:39:00,
2013-08-30 11:44:00,86.1,74.3,29.90,SW,221,5.8,5.8,68,0.00,CLR,,0.00,WeatherDisplay:10.37,2013-08-30 16:44:00,
2013-08-30 11:49:00,86.2,74.4,29.90,WSW,237,11.5,11.5,68,0.00,CLR,,0.00,WeatherDisplay:10.37,2013-08-30 16:49:00,
2013-08-30 11:54:00,86.0,74.2,29.90,SW,216,5.0,5.0,68,0.00,CLR,,0.00,WeatherDisplay:10.37,2013-08-30 16:54:00,
2013-08-30 11:59:00,86.3,74.5,29.90,SW,225,9.2,9.2,68,0.00,CLR,,0.00,WeatherDisplay:10.37,2013-08-30 16:59:00,
2013-08-30 12:04:00,86.6,74.8,29.90,SW,222,9.2,9.2,68,0.00,CLR,,0.00,WeatherDisplay:10.37,2013-08-30 17:04:00,
2013-08-30 12:09:00,87.0,75.2,29.89,SW,221,10.4,10.4,68,0.00,CLR,,0.00,WeatherDisplay:10.37,2013-08-30 17:09:00,
2013-08-30 12:14:00,87.0,75.2,29.89,South,190,9.0,9.0,68,0.00,CLR,,0.00,WeatherDisplay:10.37,2013-08-30 17:14:00,
2013-08-30 12:19:00,87.1,75.3,29.89,SW,223,6.0,6.0,68,0.00,CLR,,0.00,WeatherDisplay:10.37,2013-08-30 17:19:00,
2013-08-30 12:24:00,87.5,75.6,29.89,WSW,257,8.1,8.1,68,0.00,CLR,,0.00,WeatherDisplay:10.37,2013-08-30 17:24:00,
2013-08-30 12:29:00,87.7,75.8,29.89,South,180,6.9,6.9,68,0.00,CLR,,0.00,WeatherDisplay:10.37,2013-08-30 17:29:00,
2013-08-30 12:34:00,87.8,75.9,29.89,WSW,242,9.2,9.2,68,0.00,CLR,,0.00,WeatherDisplay:10.37,2013-08-30 17:34:00,
2013-08-30 12:39:00,88.0,76.1,29.89,SSW,209,6.9,6.9,68,0.00,CLR,,0.00,WeatherDisplay:10.37,2013-08-30 17:39:00,
2013-08-30 12:44:00,88.5,76.6,29.89,West,278,5.8,5.8,68,0.00,CLR,,0.00,WeatherDisplay:10.37,2013-08-30 17:44:00,
2013-08-30 12:49:00,88.7,76.8,29.89,SW,232,11.5,11.5,68,0.00,CLR,,0.00,WeatherDisplay:10.37,2013-08-30 17:49:00,
2013-08-30 12:54:00,88.8,77.3,29.89,WSW,246,6.9,6.9,69,0.00,CLR,,0.00,WeatherDisplay:10.37,2013-08-30 17:54:00,
2013-08-30 12:59:00,89.2,77.7,29.89,SW,230,3.5,3.5,69,0.00,CLR,,0.00,WeatherDisplay:10.37,2013-08-30 17:59:00,
2013-08-30 13:04:00,89.2,77.3,29.89,WSW,248,10.4,10.4,68,0.00,CLR,,0.00,WeatherDisplay:10.37,2013-08-30 18:04:00,
2013-08-30 13:09:00,89.3,77.3,29.88,SSW,194,6.9,6.9,68,0.00,CLR,,0.00,WeatherDisplay:10.37,2013-08-30 18:09:00,
2013-08-30 13:14:00,89.4,77.4,29.88,SW,235,6.9,6.9,68,0.00,CLR,,0.00,WeatherDisplay:10.37,2013-08-30 18:14:00,
2013-08-30 13:19:00,89.8,78.3,29.88,SW,214,10.4,10.4,69,0.00,CLR,,0.00,WeatherDisplay:10.37,2013-08-30 18:19:00,
2013-08-30 13:24:00,89.9,77.5,29.88,SW,236,11.5,11.5,67,0.00,CLR,,0.00,WeatherDisplay:10.37,2013-08-30 18:24:00,
2013-08-30 13:29:00,89.7,77.3,29.88,SSW,203,10.4,10.4,67,0.00,CLR,,0.00,WeatherDisplay:10.37,2013-08-30 18:29:00,
2013-08-30 13:34:00,89.6,77.6,29.87,SSW,211,11.5,11.5,68,0.00,CLR,,0.00,WeatherDisplay:10.37,2013-08-30 18:34:00,
2013-08-30 13:39:00,89.7,77.7,29.88,WSW,254,10.4,10.4,68,0.00,CLR,,0.00,WeatherDisplay:10.37,2013-08-30 18:39:00,
2013-08-30 13:44:00,90.1,77.7,29.87,WSW,240,10.4,10.4,67,0.00,CLR,,0.00,WeatherDisplay:10.37,2013-08-30 18:44:00,
2013-08-30 13:49:00,90.3,77.8,29.87,South,175,6.9,6.9,67,0.00,CLR,,0.00,WeatherDisplay:10.37,2013-08-30 18:49:00,
2013-08-30 13:54:00,90.4,77.9,29.87,West,272,11.5,11.5,67,0.00,CLR,,0.00,WeatherDisplay:10.37,2013-08-30 18:54:00,
2013-08-30 13:59:00,90.9,78.0,29.87,SSW,209,10.4,10.4,66,0.00,CLR,,0.00,WeatherDisplay:10.37,2013-08-30 18:59:00,
2013-08-30 14:04:00,91.0,78.1,29.87,SW,227,10.4,10.4,66,0.00,CLR,,0.00,WeatherDisplay:10.37,2013-08-30 19:04:00,
2013-08-30 14:09:00,90.9,78.0,29.87,WSW,237,10.4,10.4,66,0.00,CLR,,0.00,WeatherDisplay:10.37,2013-08-30 19:09:00,
2013-08-30 14:14:00,91.0,78.1,29.86,South,186,1.2,0.0,66,0.00,CLR,,0.00,WeatherDisplay:10.37,2013-08-30 19:14:00,
2013-08-30 14:19:00,91.2,78.2,29.86,WSW,242,9.0,9.0,66,0.00,CLR,,0.00,WeatherDisplay:10.37,2013-08-30 19:19:00,
2013-08-30 14:24:00,91.3,77.9,29.86,South,176,5.8,5.8,65,0.00,CLR,,0.00,WeatherDisplay:10.37,2013-08-30 19:24:00,
2013-08-30 14:29:00,91.2,77.8,29.86,SW,225,3.5,3.5,65,0.00,CLR,,0.00,WeatherDisplay:10.37,2013-08-30 19:29:00,
2013-08-30 14:34:00,91.6,78.2,29.85,South,184,5.8,5.8,65,0.00,CLR,,0.00,WeatherDisplay:10.37,2013-08-30 19:34:00,
2013-08-30 14:39:00,92.0,78.1,29.85,SW,223,6.9,6.9,64,0.00,CLR,,0.00,WeatherDisplay:10.37,2013-08-30 19:39:00,
2013-08-30 14:44:00,91.9,78.4,29.85,SW,225,6.9,6.9,65,0.00,CLR,,0.00,WeatherDisplay:10.37,2013-08-30 19:44:00,
2013-08-30 14:49:00,92.0,77.6,29.85,South,188,9.2,9.2,63,0.00,CLR,,0.00,WeatherDisplay:10.37,2013-08-30 19:49:00,
2013-08-30 14:54:00,91.7,77.8,29.84,SW,226,1.2,0.0,64,0.00,CLR,,0.00,WeatherDisplay:10.37,2013-08-30 19:54:00,
2013-08-30 14:59:00,91.9,78.0,29.84,SW,214,12.7,12.7,64,0.00,CLR,,0.00,WeatherDisplay:10.37,2013-08-30 19:59:00,
2013-08-30 15:04:00,92.2,78.7,29.84,West,273,11.5,11.5,65,0.00,CLR,,0.00,WeatherDisplay:10.37,2013-08-30 20:04:00,
2013-08-30 15:09:00,92.2,78.3,29.84,SSW,207,11.5,11.5,64,0.00,CLR,,0.00,WeatherDisplay:10.37,2013-08-30 20:09:00,
2013-08-30 15:14:00,92.0,77.6,29.84,WSW,242,11.5,11.5,63,0.00,CLR,,0.00,WeatherDisplay:10.37,2013-08-30 20:14:00,
2013-08-30 15:19:00,91.4,77.0,29.83,SW,229,10.4,10.4,63,0.00,CLR,,0.00,WeatherDisplay:10.37,2013-08-30 20:19:00,
2013-08-30 15:24:00,91.5,78.1,29.83,WSW,240,4.0,4.0,65,0.00,CLR,,0.00,WeatherDisplay:10.37,2013-08-30 20:24:00,
2013-08-30 15:29:00,91.6,78.2,29.83,SW,221,1.0,0.0,65,0.00,CLR,,0.00,WeatherDisplay:10.37,2013-08-30 20:29:00,
2013-08-30 15:34:00,92.2,78.7,29.83,West,264,3.5,3.5,65,0.00,CLR,,0.00,WeatherDisplay:10.37,2013-08-30 20:34:00,
2013-08-30 15:39:00,92.3,78.8,29.83,SW,236,6.9,6.9,65,0.00,CLR,,0.00,WeatherDisplay:10.37,2013-08-30 20:39:00,
2013-08-30 15:44:00,91.8,78.4,29.83,SW,218,5.0,5.0,65,0.00,CLR,,0.00,WeatherDisplay:10.37,2013-08-30 20:44:00,
2013-08-30 15:49:00,91.3,78.3,29.83,SW,227,5.0,5.0,66,0.00,CLR,,0.00,WeatherDisplay:10.37,2013-08-30 20:49:00,
2013-08-30 15:54:00,90.9,78.0,29.83,SW,236,5.8,5.8,66,0.00,CLR,,0.00,WeatherDisplay:10.37,2013-08-30 20:54:00,
2013-08-30 15:59:00,90.7,78.2,29.82,SW,223,9.2,9.2,67,0.00,CLR,,0.00,WeatherDisplay:10.37,2013-08-30 20:59:00,
2013-08-30 16:04:00,91.6,78.6,29.82,South,184,5.8,5.8,66,0.00,CLR,,0.00,WeatherDisplay:10.37,2013-08-30 21:04:00,
2013-08-30 16:09:00,92.0,78.1,29.82,WSW,252,11.5,11.5,64,0.00,CLR,,0.00,WeatherDisplay:10.37,2013-08-30 21:09:00,
2013-08-30 16:14:00,92.2,78.3,29.82,SW,233,6.9,6.9,64,0.00,CLR,,0.00,WeatherDisplay:10.37,2013-08-30 21:14:00,
2013-08-30 16:19:00,92.2,78.7,29.82,SW,216,5.8,5.8,65,0.00,CLR,,0.00,WeatherDisplay:10.37,2013-08-30 21:19:00,
2013-08-30 16:24:00,92.3,78.8,29.82,SW,236,4.0,4.0,65,0.00,CLR,,0.00,WeatherDisplay:10.37,2013-08-30 21:24:00,
2013-08-30 16:29:00,92.5,79.0,29.82,WSW,242,6.9,6.9,65,0.00,CLR,,0.00,WeatherDisplay:10.37,2013-08-30 21:29:00,
2013-08-30 16:34:00,92.7,78.7,29.81,SW,235,6.0,6.0,64,0.00,CLR,,0.00,WeatherDisplay:10.37,2013-08-30 21:34:00,
2013-08-30 16:39:00,92.7,78.7,29.81,WSW,249,6.0,6.0,64,0.00,CLR,,0.00,WeatherDisplay:10.37,2013-08-30 21:39:00,
2013-08-30 16:44:00,92.7,77.8,29.81,WSW,240,6.0,6.0,62,0.00,CLR,,0.00,WeatherDisplay:10.37,2013-08-30 21:44:00,
2013-08-30 16:49:00,92.7,78.3,29.81,WSW,256,4.6,4.6,63,0.00,CLR,,0.00,WeatherDisplay:10.37,2013-08-30 21:49:00,
2013-08-30 16:54:00,92.8,78.8,29.81,West,270,6.9,6.9,64,0.00,CLR,,0.00,WeatherDisplay:10.37,2013-08-30 21:54:00,
2013-08-30 17:00:00,92.7,78.7,29.81,WSW,242,6.9,6.9,64,0.00,CLR,,0.00,WeatherDisplay:10.37,2013-08-30 22:00:00,
2013-08-30 17:05:00,92.3,77.9,29.81,WSW,251,9.2,9.2,63,0.00,CLR,,0.00,WeatherDisplay:10.37,2013-08-30 22:05:00,
2013-08-30 17:10:00,92.3,77.9,29.81,SW,227,3.5,3.5,63,0.00,CLR,,0.00,WeatherDisplay:10.37,2013-08-30 22:10:00,
2013-08-30 17:15:00,92.5,77.6,29.80,West,264,3.5,0.0,62,0.00,CLR,,0.00,WeatherDisplay:10.37,2013-08-30 22:15:00,
2013-08-30 17:20:00,92.6,78.2,29.80,West,261,4.0,4.0,63,0.00,CLR,,0.00,WeatherDisplay:10.37,2013-08-30 22:20:00,
2013-08-30 17:25:00,92.5,78.1,29.80,SSW,198,5.8,5.8,63,0.00,CLR,,0.00,WeatherDisplay:10.37,2013-08-30 22:25:00,
2013-08-30 17:30:00,92.3,78.4,29.80,WSW,240,5.8,5.8,64,0.00,CLR,,0.00,WeatherDisplay:10.37,2013-08-30 22:30:00,
2013-08-30 17:35:00,92.1,78.2,29.80,WSW,241,5.8,5.8,64,0.00,CLR,,0.00,WeatherDisplay:10.37,2013-08-30 22:35:00,
2013-08-30 17:40:00,92.0,78.1,29.80,WSW,252,5.8,5.8,64,0.00,CLR,,0.00,WeatherDisplay:10.37,2013-08-30 22:40:00,
2013-08-30 17:45:00,91.8,77.9,29.79,WSW,252,5.8,5.8,64,0.00,CLR,,0.00,WeatherDisplay:10.37,2013-08-30 22:45:00,
2013-08-30 17:50:00,91.7,77.8,29.80,SW,222,5.8,5.8,64,0.00,CLR,,0.00,WeatherDisplay:10.37,2013-08-30 22:50:00,
2013-08-30 17:55:00,91.5,78.1,29.79,West,265,4.6,4.6,65,0.00,CLR,,0.00,WeatherDisplay:10.37,2013-08-30 22:55:00,
2013-08-30 18:00:00,91.2,77.8,29.79,WSW,249,5.8,5.8,65,0.00,CLR,,0.00,WeatherDisplay:10.37,2013-08-30 23:00:00,
2013-08-30 18:05:00,91.1,78.2,29.79,SW,230,5.8,5.8,66,0.00,CLR,,0.00,WeatherDisplay:10.37,2013-08-30 23:05:00,
2013-08-30 18:10:00,90.9,78.0,29.79,WSW,246,6.9,6.9,66,0.00,CLR,,0.00,WeatherDisplay:10.37,2013-08-30 23:10:00,
2013-08-30 18:15:00,90.7,77.8,29.79,WSW,250,4.0,4.0,66,0.00,CLR,,0.00,WeatherDisplay:10.37,2013-08-30 23:15:00,
2013-08-30 18:20:00,90.4,77.9,29.79,WSW,248,3.5,3.5,67,0.00,CLR,,0.00,WeatherDisplay:10.37,2013-08-30 23:20:00,
2013-08-30 18:25:00,90.2,77.8,29.79,WSW,241,0.0,0.0,67,0.00,CLR,,0.00,WeatherDisplay:10.37,2013-08-30 23:25:00,
2013-08-30 18:30:00,89.9,77.5,29.80,SW,227,4.6,4.6,67,0.00,CLR,,0.00,WeatherDisplay:10.37,2013-08-30 23:30:00,
2013-08-30 18:35:00,89.7,77.7,29.80,SW,232,4.0,4.0,68,0.00,CLR,,0.00,WeatherDisplay:10.37,2013-08-30 23:35:00,
2013-08-30 18:40:00,89.3,77.3,29.80,SW,233,0.0,0.0,68,0.00,CLR,,0.00,WeatherDisplay:10.37,2013-08-30 23:40:00,
2013-08-30 18:45:00,89.1,77.2,29.80,SW,233,3.5,3.5,68,0.00,CLR,,0.00,WeatherDisplay:10.37,2013-08-30 23:45:00,
2013-08-30 18:50:00,88.8,77.3,29.81,SW,233,0.0,0.0,69,0.00,CLR,,0.00,WeatherDisplay:10.37,2013-08-30 23:50:00,
2013-08-30 18:55:00,88.7,77.2,29.81,SW,233,0.0,0.0,69,0.00,CLR,,0.00,WeatherDisplay:10.37,2013-08-30 23:55:00,
2013-08-30 19:00:00,88.4,76.9,29.81,SW,233,0.0,0.0,69,0.00,CLR,,0.00,WeatherDisplay:10.37,2013-08-31 00:00:00,
2013-08-30 19:05:00,88.1,77.1,29.81,SW,233,0.0,0.0,70,0.00,CLR,,0.00,WeatherDisplay:10.37,2013-08-31 00:05:00,
2013-08-30 19:10:00,87.9,76.9,29.81,SW,233,0.0,0.0,70,0.00,CLR,,0.00,WeatherDisplay:10.37,2013-08-31 00:10:00,
2013-08-30 19:15:00,87.8,76.8,29.81,SW,234,0.0,0.0,70,0.00,CLR,,0.00,WeatherDisplay:10.37,2013-08-31 00:15:00,
2013-08-30 19:20:00,87.7,76.7,29.81,SW,233,0.0,0.0,70,0.00,CLR,,0.00,WeatherDisplay:10.37,2013-08-31 00:20:00,
2013-08-30 19:25:00,87.4,76.4,29.81,SW,235,3.5,3.5,70,0.00,CLR,,0.00,WeatherDisplay:10.37,2013-08-31 00:25:00,
2013-08-30 19:30:00,87.1,76.5,29.81,SW,235,0.0,0.0,71,0.00,CLR,,0.00,WeatherDisplay:10.37,2013-08-31 00:30:00,
2013-08-30 19:35:00,86.6,76.1,29.81,SW,235,0.0,0.1,71,0.00,CLR,,0.00,WeatherDisplay:10.37,2013-08-31 00:35:00,
2013-08-30 19:40:00,86.3,75.8,29.81,SW,233,1.2,0.0,71,0.00,CLR,,0.00,WeatherDisplay:10.37,2013-08-31 00:40:00,
2013-08-30 19:45:00,86.1,75.6,29.81,SW,233,0.0,0.0,71,0.00,CLR,,0.00,WeatherDisplay:10.37,2013-08-31 00:45:00,
2013-08-30 19:50:00,85.9,75.4,29.81,SW,221,4.0,4.0,71,0.00,CLR,,0.00,WeatherDisplay:10.37,2013-08-31 00:50:00,
2013-08-30 19:55:00,85.8,75.3,29.81,SW,223,3.5,0.0,71,0.00,CLR,,0.00,WeatherDisplay:10.37,2013-08-31 00:55:00,
2013-08-30 20:00:00,85.6,75.1,29.82,SW,223,1.2,0.0,71,0.00,CLR,,0.00,WeatherDisplay:10.37,2013-08-31 01:00:00,
2013-08-30 20:05:00,85.4,74.9,29.82,SW,224,0.0,0.0,71,0.00,CLR,,0.00,WeatherDisplay:10.37,2013-08-31 01:05:00,
2013-08-30 20:10:00,85.1,74.6,29.82,SW,224,0.0,0.0,71,0.00,CLR,,0.00,WeatherDisplay:10.37,2013-08-31 01:10:00,
2013-08-30 20:15:00,84.8,74.3,29.83,SW,224,0.0,0.0,71,0.00,CLR,,0.00,WeatherDisplay:10.37,2013-08-31 01:15:00,
2013-08-30 20:20:00,84.6,73.7,29.83,SW,224,0.0,0.0,70,0.00,CLR,,0.00,WeatherDisplay:10.37,2013-08-31 01:20:00,
2013-08-30 20:25:00,84.4,73.5,29.83,SW,223,0.0,0.0,70,0.00,CLR,,0.00,WeatherDisplay:10.37,2013-08-31 01:25:00,
2013-08-30 20:30:00,84.2,73.3,29.83,SW,223,0.0,0.0,70,0.00,CLR,,0.00,WeatherDisplay:10.37,2013-08-31 01:30:00,
2013-08-30 20:35:00,84.1,73.3,29.83,SW,224,0.0,0.0,70,0.00,CLR,,0.00,WeatherDisplay:10.37,2013-08-31 01:35:00,
2013-08-30 20:40:00,83.9,72.6,29.82,SW,224,0.0,0.0,69,0.00,CLR,,0.00,WeatherDisplay:10.37,2013-08-31 01:40:00,
2013-08-30 20:45:00,83.8,72.5,29.82,SW,224,0.0,0.0,69,0.00,CLR,,0.00,WeatherDisplay:10.37,2013-08-31 01:45:00,
2013-08-30 20:50:00,83.6,72.3,29.82,SW,224,0.0,0.0,69,0.00,CLR,,0.00,WeatherDisplay:10.37,2013-08-31 01:50:00,
2013-08-30 20:55:00,83.6,71.9,29.82,SW,224,0.0,0.0,68,0.00,CLR,,0.00,WeatherDisplay:10.37,2013-08-31 01:55:00,
2013-08-30 21:00:00,83.5,71.8,29.82,SW,223,0.0,0.0,68,0.00,CLR,,0.00,WeatherDisplay:10.37,2013-08-31 02:00:00,
2013-08-30 21:05:00,83.5,71.8,29.81,SW,223,0.0,0.0,68,0.00,CLR,,0.00,WeatherDisplay:10.37,2013-08-31 02:05:00,
2013-08-30 21:10:00,83.3,71.2,29.81,SW,224,1.2,1.2,67,0.00,CLR,,0.00,WeatherDisplay:10.37,2013-08-31 02:10:00,
2013-08-30 21:15:00,83.2,71.1,29.82,SW,225,0.0,0.0,67,0.00,CLR,,0.00,WeatherDisplay:10.37,2013-08-31 02:15:00,
2013-08-30 21:20:00,83.1,71.0,29.82,SW,223,0.0,0.0,67,0.00,CLR,,0.00,WeatherDisplay:10.37,2013-08-31 02:20:00,
2013-08-30 21:25:00,83.0,70.5,29.82,SW,224,0.0,0.0,66,0.00,CLR,,0.00,WeatherDisplay:10.37,2013-08-31 02:25:00,
2013-08-30 21:30:00,83.0,70.5,29.83,SW,223,0.0,0.0,66,0.00,CLR,,0.00,WeatherDisplay:10.37,2013-08-31 02:30:00,
2013-08-30 21:35:00,82.6,71.4,29.86,North,360,14.0,14.0,69,0.00,CLR,,0.00,WeatherDisplay:10.37,2013-08-31 02:35:00,
2013-08-30 21:40:00,82.7,69.7,29.87,NNE,17,17.3,17.3,65,0.00,CLR,,0.00,WeatherDisplay:10.37,2013-08-31 02:40:00,
2013-08-30 21:45:00,82.9,69.0,29.89,NNE,13,18.4,18.4,63,0.00,CLR,,0.00,WeatherDisplay:10.37,2013-08-31 02:45:00,
2013-08-30 21:50:00,79.8,67.9,29.89,NNE,24,16.1,16.1,67,0.00,CLR,,0.00,WeatherDisplay:10.37,2013-08-31 02:50:00,
2013-08-30 21:55:00,77.1,66.6,29.88,ENE,78,15.0,15.0,70,0.00,CLR,,0.00,WeatherDisplay:10.37,2013-08-31 02:55:00,
2013-08-30 22:00:00,75.7,65.6,29.88,NE,39,18.4,18.4,71,0.00,CLR,,0.00,WeatherDisplay:10.37,2013-08-31 03:00:00,
2013-08-30 22:05:00,74.8,64.8,29.87,ENE,61,9.2,9.2,71,0.00,CLR,,0.00,WeatherDisplay:10.37,2013-08-31 03:05:00,
2013-08-30 22:10:00,74.3,64.3,29.87,North,5,13.8,13.8,71,0.00,CLR,,0.00,WeatherDisplay:10.37,2013-08-31 03:10:00,
2013-08-30 22:15:00,73.9,63.5,29.86,NE,45,11.5,11.5,70,0.00,CLR,,0.00,WeatherDisplay:10.37,2013-08-31 03:15:00,
2013-08-30 22:20:00,73.5,62.7,29.85,NE,48,0.0,0.0,69,0.00,CLR,,0.00,WeatherDisplay:10.37,2013-08-31 03:20:00,
2013-08-30 22:25:00,73.1,61.9,29.85,NNE,27,0.0,0.0,68,0.00,CLR,,0.00,WeatherDisplay:10.37,2013-08-31 03:25:00,
2013-08-30 22:30:00,72.9,61.3,29.85,ENE,57,0.0,0.0,67,0.00,CLR,,0.00,WeatherDisplay:10.37,2013-08-31 03:30:00,
2013-08-30 22:35:00,72.8,61.2,29.84,NE,56,0.0,0.0,67,0.00,CLR,,0.00,WeatherDisplay:10.37,2013-08-31 03:35:00,
2013-08-30 22:40:00,72.8,61.2,29.83,East,96,0.0,0.0,67,0.00,CLR,,0.00,WeatherDisplay:10.37,2013-08-31 03:40:00,
2013-08-30 22:45:00,73.0,61.4,29.82,ESE,105,0.0,0.0,67,0.00,CLR,,0.00,WeatherDisplay:10.37,2013-08-31 03:45:00,
2013-08-30 22:50:00,73.2,61.6,29.83,SSW,195,0.0,0.0,67,0.00,CLR,,0.00,WeatherDisplay:10.37,2013-08-31 03:50:00,
2013-08-30 22:55:00,73.2,61.6,29.84,NW,319,0.0,0.0,67,0.00,CLR,,0.00,WeatherDisplay:10.37,2013-08-31 03:55:00,
2013-08-30 23:00:00,73.3,61.7,29.83,NW,320,0.0,0.0,67,0.00,CLR,,0.00,WeatherDisplay:10.37,2013-08-31 04:00:00,
2013-08-30 23:01:00,73.3,61.7,29.83,NW,320,0.0,0.0,67,0.00,CLR,,0.00,WeatherDisplay:10.37,2013-08-31 04:01:00,
2013-08-30 23:02:00,73.3,61.7,29.83,NW,320,0.0,0.0,67,0.00,CLR,,0.00,WeatherDisplay:10.37,2013-08-31 04:02:00,
2013-08-30 23:07:00,73.3,61.7,29.83,NW,319,0.0,0.0,67,0.00,CLR,,0.00,WeatherDisplay:10.37,2013-08-31 04:07:00,
2013-08-30 23:12:00,73.3,61.7,29.83,NW,319,0.0,0.0,67,0.00,CLR,,0.00,WeatherDisplay:10.37,2013-08-31 04:12:00,
2013-08-30 23:17:00,73.0,61.0,29.88,NW,310,15.0,15.0,66,0.00,CLR,,0.00,WeatherDisplay:10.37,2013-08-31 04:17:00,
2013-08-30 23:22:00,72.5,60.5,29.87,WNW,296,3.5,0.0,66,0.00,CLR,,0.00,WeatherDisplay:10.37,2013-08-31 04:22:00,
2013-08-30 23:27:00,72.6,60.2,29.87,West,276,0.0,0.0,65,0.00,CLR,,0.00,WeatherDisplay:10.37,2013-08-31 04:27:00,
2013-08-30 23:32:00,72.8,60.8,29.86,West,276,0.0,0.0,66,0.00,CLR,,0.00,WeatherDisplay:10.37,2013-08-31 04:32:00,
2013-08-30 23:37:00,72.8,60.8,29.85,West,263,0.0,0.0,66,0.00,CLR,,0.00,WeatherDisplay:10.37,2013-08-31 04:37:00,
2013-08-30 23:42:00,72.9,61.3,29.85,West,261,0.0,0.0,67,0.00,CLR,,0.00,WeatherDisplay:10.37,2013-08-31 04:42:00,
2013-08-30 23:47:00,73.0,61.4,29.84,WSW,255,0.0,0.0,67,0.00,CLR,,0.00,WeatherDisplay:10.37,2013-08-31 04:47:00,
2013-08-30 23:52:00,72.9,61.3,29.84,WSW,248,0.0,0.0,67,0.00,CLR,,0.00,WeatherDisplay:10.37,2013-08-31 04:52:00,
2013-08-30 23:57:00,72.6,61.0,29.84,WSW,243,0.0,0.0,67,0.00,CLR,,0.00,WeatherDisplay:10.37,2013-08-31 04:57:00,